Terminal Aerodrome Forecast
Issued by NWS

Home | Current Version | Previous Version | Text Only | Print | Product List | Glossary Off
Versions: 1 2 3 4 5 6 7 8 9 10 11 12 13 14 15 16 17 18 19 20 21 22 23

000
FTUS43 KABR 250400 AAC
TAFMBG
TAF AMD
KMBG 250407Z 2504/2524 34012KT P6SM -RA OVC025
     FM250700 34013KT P6SM OVC015=

USA.gov is the U.S. government's official web portal to all federal, state and local government web resources and services.